Погода в Берни

Австралия     41°03′27″S   145°54′06″E
темп.,
°C
ветер,
м/с
пор.,
м/с
влажн.,
%
обл.,
%
осадки,
мм/ч
давл.,
гПа
погр.,
м
13 апреля, вт
вт1301:00+12юв2371100 0.0 1019244
04:00+11юв2274100 0.0 1018312
07:00+11юв3380100 0.0 1018314
10:00+12в3377100 0.0 1017375
13:00+15с7871100 0.3 10141087
16:00+15ссз7971100 0.3 10121166
19:00+16с8127288 0.2 10101304
22:00+17ссз121872100 0.6 10081691
14 апреля, ср
ср1401:00+15ссз111878100 1.7 10051893
04:00+16сз131778100 3.3 10021504
07:00+15зсз12187417 0.5 10021581
10:00+15зсз12197541 1.3 10031685
13:00+16з1118665 0.2 10031684
16:00+15з1017660 0.3 10051526
19:00+13з1016719 0.1 10081651
22:00+12з916735 0.1 10091484
15 апреля, чт
чт1501:00+13з9167385 0.0 10091711
04:00+13з10167091 0.1 10081851
07:00+13з10166982 0.1 10091460
10:00+14з10156839 0.2 10091564
13:00+15зюз1016564 0.1 10101871
16:00+13зюз1016605 0.1 10111722
19:00+11юз8136248 0.0 10151697
22:00+10зюз510646 0.0 10181247
16 апреля, пт
пт1601:00+9зюз6106711 0.0 1019980
04:00+9зюз69709 0.0 1020808
07:00+9зюз58775 0.0 1021554
10:00+12зюз685932 0.0 10221376
13:00+14з78525 0.0 10201548
16:00+15з68492 0.0 10191628
19:00+12з710675 0.0 1021946
22:00+11з6107836 0.0 1021666
17 апреля, сб
сб1701:00+13з71167100 0.0 10201352
04:00+13з71274100 0.0 10191007
07:00+13з71280100 0.0 1019787
10:00+15з71174100 0.0 1019972
13:00+17з796867 0.3 10171227
16:00+17з710705 0.4 10171198
19:00+15з6977100 0.1 10181040
22:00+15з597684 0.1 1017999